Time,TemperatureF,DewpointF,PressureIn,WindDirection,WindDirectionDegrees,WindSpeedMPH,WindSpeedGustMPH,Humidity,HourlyPrecipIn,Conditions,Clouds,dailyrainin,SoftwareType,DateUTC
2014-01-02 00:02:00,51.6,47.0,30.11,South,174,0.0,-999.0,85,-99.99,,,0.05,weatherlink.com 1.10,2014-01-02 05:02:00,
2014-01-02 00:17:00,51.7,47.0,30.11,South,174,0.0,-999.0,85,-99.99,,,0.09,weatherlink.com 1.10,2014-01-02 05:17:00,
2014-01-02 00:32:00,51.9,48.0,30.11,South,174,0.0,-999.0,85,-99.99,,,0.11,weatherlink.com 1.10,2014-01-02 05:32:00,
2014-01-02 00:47:00,51.9,48.0,30.09,South,174,0.0,-999.0,85,-99.99,,,0.12,weatherlink.com 1.10,2014-01-02 05:47:00,
2014-01-02 01:02:00,52.0,48.0,30.09,South,174,0.0,-999.0,85,-99.99,,,0.14,weatherlink.com 1.10,2014-01-02 06:02:00,
2014-01-02 01:17:00,52.0,48.0,30.09,South,174,0.0,-999.0,85,-99.99,,,0.16,weatherlink.com 1.10,2014-01-02 06:17:00,
2014-01-02 01:32:00,51.9,48.0,30.08,South,174,0.0,-999.0,85,-99.99,,,0.17,weatherlink.com 1.10,2014-01-02 06:32:00,
2014-01-02 01:47:00,52.0,48.0,30.08,South,174,0.0,-999.0,85,-99.99,,,0.17,weatherlink.com 1.10,2014-01-02 06:47:00,
2014-01-02 02:02:00,52.0,48.0,30.07,South,174,0.0,-999.0,85,-99.99,,,0.17,weatherlink.com 1.10,2014-01-02 07:02:00,
2014-01-02 02:17:00,51.7,47.0,30.06,South,176,0.0,-999.0,85,-99.99,,,0.18,weatherlink.com 1.10,2014-01-02 07:17:00,
2014-01-02 02:32:00,51.6,47.0,30.07,South,176,0.0,-999.0,85,-99.99,,,0.19,weatherlink.com 1.10,2014-01-02 07:32:00,
2014-01-02 02:47:00,51.3,47.0,30.05,South,177,0.0,-999.0,86,-99.99,,,0.20,weatherlink.com 1.10,2014-01-02 07:47:00,
2014-01-02 03:03:00,51.3,47.0,30.05,South,177,0.0,-999.0,86,-99.99,,,0.21,weatherlink.com 1.10,2014-01-02 08:03:00,
2014-01-02 03:18:00,51.1,47.0,30.04,South,177,0.0,-999.0,86,-99.99,,,0.23,weatherlink.com 1.10,2014-01-02 08:18:00,
2014-01-02 03:33:00,51.1,47.0,30.03,South,177,0.0,-999.0,86,-99.99,,,0.26,weatherlink.com 1.10,2014-01-02 08:33:00,
2014-01-02 03:48:00,51.1,47.0,30.03,South,185,0.0,-999.0,86,-99.99,,,0.27,weatherlink.com 1.10,2014-01-02 08:48:00,
2014-01-02 04:03:00,51.0,47.0,30.03,South,177,0.0,-999.0,86,-99.99,,,0.29,weatherlink.com 1.10,2014-01-02 09:03:00,
2014-01-02 04:18:00,51.0,47.0,30.02,South,176,0.0,-999.0,86,-99.99,,,0.32,weatherlink.com 1.10,2014-01-02 09:18:00,
2014-01-02 04:33:00,50.8,47.0,30.00,South,176,0.0,-999.0,86,-99.99,,,0.33,weatherlink.com 1.10,2014-01-02 09:33:00,
2014-01-02 04:48:00,51.0,47.0,30.00,South,176,0.0,-999.0,86,-99.99,,,0.34,weatherlink.com 1.10,2014-01-02 09:48:00,
2014-01-02 05:03:00,51.0,47.0,30.00,South,176,0.0,-999.0,86,-99.99,,,0.34,weatherlink.com 1.10,2014-01-02 10:03:00,
2014-01-02 05:18:00,51.1,47.0,29.98,South,176,0.0,-999.0,86,-99.99,,,0.35,weatherlink.com 1.10,2014-01-02 10:18:00,
2014-01-02 05:33:00,51.3,47.0,29.97,South,176,0.0,-999.0,86,-99.99,,,0.35,weatherlink.com 1.10,2014-01-02 10:33:00,
2014-01-02 05:48:00,51.3,47.0,29.97,South,176,0.0,-999.0,86,-99.99,,,0.36,weatherlink.com 1.10,2014-01-02 10:48:00,
2014-01-02 06:03:00,51.3,48.0,29.97,South,176,0.0,-999.0,87,-99.99,,,0.37,weatherlink.com 1.10,2014-01-02 11:03:00,
2014-01-02 06:18:00,51.3,48.0,29.97,South,176,0.0,-999.0,87,-99.99,,,0.39,weatherlink.com 1.10,2014-01-02 11:18:00,
2014-01-02 06:33:00,51.3,48.0,29.97,South,176,0.0,-999.0,87,-99.99,,,0.41,weatherlink.com 1.10,2014-01-02 11:33:00,
2014-01-02 06:48:00,51.1,47.0,29.96,South,176,0.0,-999.0,87,-99.99,,,0.42,weatherlink.com 1.10,2014-01-02 11:48:00,
2014-01-02 07:03:00,51.1,47.0,29.96,South,176,0.0,-999.0,87,-99.99,,,0.44,weatherlink.com 1.10,2014-01-02 12:03:00,
2014-01-02 07:18:00,51.0,47.0,29.96,South,176,0.0,-999.0,87,-99.99,,,0.47,weatherlink.com 1.10,2014-01-02 12:18:00,
2014-01-02 07:33:00,50.8,47.0,29.97,South,176,0.0,-999.0,87,-99.99,,,0.50,weatherlink.com 1.10,2014-01-02 12:33:00,
2014-01-02 07:48:00,50.7,47.0,29.96,South,176,0.0,-999.0,87,-99.99,,,0.52,weatherlink.com 1.10,2014-01-02 12:48:00,
2014-01-02 08:03:00,50.8,47.0,29.95,South,176,0.0,-999.0,87,-99.99,,,0.53,weatherlink.com 1.10,2014-01-02 13:03:00,
2014-01-02 08:18:00,50.8,47.0,29.95,South,176,0.0,-999.0,87,-99.99,,,0.53,weatherlink.com 1.10,2014-01-02 13:18:00,
2014-01-02 08:33:00,50.8,47.0,29.94,South,176,0.0,-999.0,87,-99.99,,,0.53,weatherlink.com 1.10,2014-01-02 13:33:00,
2014-01-02 08:48:00,51.0,47.0,29.93,South,176,0.0,-999.0,87,-99.99,,,0.54,weatherlink.com 1.10,2014-01-02 13:48:00,
2014-01-02 09:03:00,51.1,47.0,29.93,South,176,0.0,-999.0,87,-99.99,,,0.54,weatherlink.com 1.10,2014-01-02 14:03:00,
2014-01-02 09:18:00,51.3,48.0,29.94,South,176,0.0,-999.0,87,-99.99,,,0.54,weatherlink.com 1.10,2014-01-02 14:18:00,
2014-01-02 09:33:00,51.6,48.0,29.94,South,176,0.0,-999.0,87,-99.99,,,0.54,weatherlink.com 1.10,2014-01-02 14:33:00,
2014-01-02 09:48:00,51.9,48.0,29.95,South,176,0.0,-999.0,87,-99.99,,,0.54,weatherlink.com 1.10,2014-01-02 14:48:00,
2014-01-02 10:03:00,52.0,48.0,29.94,South,176,0.0,-999.0,87,-99.99,,,0.54,weatherlink.com 1.10,2014-01-02 15:03:00,
2014-01-02 10:18:00,52.5,49.0,29.93,South,176,0.0,-999.0,87,-99.99,,,0.54,weatherlink.com 1.10,2014-01-02 15:18:00,
2014-01-02 10:33:00,52.6,49.0,29.93,South,176,0.0,-999.0,87,-99.99,,,0.55,weatherlink.com 1.10,2014-01-02 15:33:00,
2014-01-02 10:48:00,53.1,49.0,29.92,South,176,0.0,-999.0,87,-99.99,,,0.55,weatherlink.com 1.10,2014-01-02 15:48:00,
2014-01-02 11:03:00,53.2,50.0,29.92,South,176,0.0,-999.0,87,-99.99,,,0.55,weatherlink.com 1.10,2014-01-02 16:03:00,
2014-01-02 11:18:00,53.3,50.0,29.89,South,176,0.0,-999.0,87,-99.99,,,0.55,weatherlink.com 1.10,2014-01-02 16:18:00,
2014-01-02 11:33:00,53.6,50.0,29.87,South,176,0.0,-999.0,87,-99.99,,,0.55,weatherlink.com 1.10,2014-01-02 16:33:00,
2014-01-02 11:48:00,53.5,50.0,29.86,South,176,0.0,-999.0,87,-99.99,,,0.55,weatherlink.com 1.10,2014-01-02 16:48:00,
2014-01-02 12:03:00,53.8,50.0,29.85,South,176,0.0,-999.0,87,-99.99,,,0.55,weatherlink.com 1.10,2014-01-02 17:03:00,
2014-01-02 12:18:00,54.1,50.0,29.84,South,176,0.0,-999.0,87,-99.99,,,0.56,weatherlink.com 1.10,2014-01-02 17:18:00,
2014-01-02 12:33:00,53.9,50.0,29.83,South,176,0.0,-999.0,87,-99.99,,,0.56,weatherlink.com 1.10,2014-01-02 17:33:00,
2014-01-02 12:48:00,54.1,50.0,29.82,South,176,0.0,-999.0,87,-99.99,,,0.57,weatherlink.com 1.10,2014-01-02 17:48:00,
2014-01-02 13:03:00,54.1,50.0,29.81,South,176,0.0,-999.0,87,-99.99,,,0.59,weatherlink.com 1.10,2014-01-02 18:03:00,
2014-01-02 13:18:00,54.2,51.0,29.80,South,176,0.0,-999.0,87,-99.99,,,0.62,weatherlink.com 1.10,2014-01-02 18:18:00,
2014-01-02 13:33:00,54.4,51.0,29.80,South,176,0.0,-999.0,87,-99.99,,,0.64,weatherlink.com 1.10,2014-01-02 18:33:00,
2014-01-02 13:48:00,54.5,51.0,29.78,South,176,0.0,-999.0,87,-99.99,,,0.65,weatherlink.com 1.10,2014-01-02 18:48:00,
2014-01-02 14:03:00,54.8,51.0,29.76,South,176,0.0,-999.0,87,-99.99,,,0.66,weatherlink.com 1.10,2014-01-02 19:03:00,
2014-01-02 14:18:00,55.1,51.0,29.75,South,176,0.0,-999.0,87,-99.99,,,0.67,weatherlink.com 1.10,2014-01-02 19:18:00,
2014-01-02 14:33:00,55.4,52.0,29.74,South,176,0.0,-999.0,87,-99.99,,,0.67,weatherlink.com 1.10,2014-01-02 19:33:00,
2014-01-02 14:48:00,55.7,52.0,29.75,South,176,0.0,-999.0,87,-99.99,,,0.67,weatherlink.com 1.10,2014-01-02 19:48:00,
2014-01-02 15:03:00,56.0,52.0,29.74,South,176,0.0,-999.0,87,-99.99,,,0.67,weatherlink.com 1.10,2014-01-02 20:03:00,
2014-01-02 15:18:00,56.2,52.0,29.73,South,176,0.0,-999.0,87,-99.99,,,0.67,weatherlink.com 1.10,2014-01-02 20:18:00,
2014-01-02 15:33:00,56.5,53.0,29.73,South,176,0.0,-999.0,87,-99.99,,,0.67,weatherlink.com 1.10,2014-01-02 20:33:00,
2014-01-02 15:48:00,56.9,53.0,29.71,South,173,2.0,-999.0,87,-99.99,,,0.67,weatherlink.com 1.10,2014-01-02 20:48:00,
2014-01-02 16:03:00,56.7,53.0,29.71,SSE,155,0.0,-999.0,87,-99.99,,,0.67,weatherlink.com 1.10,2014-01-02 21:03:00,
2014-01-02 16:18:00,56.5,53.0,29.71,SSE,155,0.0,-999.0,87,-99.99,,,0.67,weatherlink.com 1.10,2014-01-02 21:18:00,
2014-01-02 16:33:00,56.3,53.0,29.71,SSE,155,0.0,-999.0,87,-99.99,,,0.67,weatherlink.com 1.10,2014-01-02 21:33:00,
2014-01-02 16:48:00,56.5,53.0,29.70,SSE,155,0.0,-999.0,87,-99.99,,,0.67,weatherlink.com 1.10,2014-01-02 21:48:00,
2014-01-02 17:03:00,56.7,53.0,29.69,SSE,154,0.0,-999.0,87,-99.99,,,0.67,weatherlink.com 1.10,2014-01-02 22:03:00,
2014-01-02 17:18:00,57.0,54.0,29.69,ENE,75,0.0,-999.0,88,-99.99,,,0.67,weatherlink.com 1.10,2014-01-02 22:18:00,
2014-01-02 17:33:00,57.3,54.0,29.69,East,100,3.0,-999.0,88,-99.99,,,0.67,weatherlink.com 1.10,2014-01-02 22:33:00,
2014-01-02 17:48:00,57.6,54.0,29.69,ENE,78,2.0,-999.0,88,-99.99,,,0.67,weatherlink.com 1.10,2014-01-02 22:48:00,
2014-01-02 18:03:00,58.0,55.0,29.70,SE,142,9.0,-999.0,88,-99.99,,,0.68,weatherlink.com 1.10,2014-01-02 23:03:00,
2014-01-02 18:18:00,58.6,55.0,29.70,SE,135,0.0,-999.0,88,-99.99,,,0.69,weatherlink.com 1.10,2014-01-02 23:18:00,
2014-01-02 18:33:00,58.7,55.0,29.70,South,170,0.0,-999.0,88,-99.99,,,0.69,weatherlink.com 1.10,2014-01-02 23:33:00,
2014-01-02 18:48:00,58.6,55.0,29.71,SSE,162,5.0,-999.0,88,-99.99,,,0.69,weatherlink.com 1.10,2014-01-02 23:48:00,
2014-01-02 19:03:00,58.4,55.0,29.70,SE,139,2.0,-999.0,87,-99.99,,,0.69,weatherlink.com 1.10,2014-01-03 00:03:00,
2014-01-02 19:18:00,58.3,55.0,29.70,SE,133,0.0,-999.0,87,-99.99,,,0.69,weatherlink.com 1.10,2014-01-03 00:18:00,
2014-01-02 19:33:00,58.0,54.0,29.71,NNE,20,1.0,-999.0,87,-99.99,,,0.69,weatherlink.com 1.10,2014-01-03 00:33:00,
2014-01-02 19:48:00,57.6,54.0,29.72,South,188,1.0,-999.0,87,-99.99,,,0.69,weatherlink.com 1.10,2014-01-03 00:48:00,
2014-01-02 20:03:00,57.3,54.0,29.73,SSE,167,1.0,-999.0,87,-99.99,,,0.69,weatherlink.com 1.10,2014-01-03 01:03:00,
2014-01-02 20:18:00,56.9,53.0,29.75,South,178,2.0,-999.0,86,-99.99,,,0.69,weatherlink.com 1.10,2014-01-03 01:18:00,
2014-01-02 20:33:00,56.5,52.0,29.75,SSE,167,2.0,-999.0,85,-99.99,,,0.69,weatherlink.com 1.10,2014-01-03 01:33:00,
2014-01-02 20:48:00,56.2,52.0,29.74,SW,232,1.0,-999.0,85,-99.99,,,0.69,weatherlink.com 1.10,2014-01-03 01:48:00,
2014-01-02 21:03:00,55.7,51.0,29.76,ESE,116,3.0,-999.0,84,-99.99,,,0.69,weatherlink.com 1.10,2014-01-03 02:03:00,
2014-01-02 21:18:00,55.4,50.0,29.76,SSE,152,0.0,-999.0,83,-99.99,,,0.69,weatherlink.com 1.10,2014-01-03 02:18:00,
2014-01-02 21:33:00,55.1,50.0,29.75,South,180,1.0,-999.0,83,-99.99,,,0.69,weatherlink.com 1.10,2014-01-03 02:33:00,
2014-01-02 21:49:00,54.8,49.0,29.76,WSW,247,3.0,-999.0,82,-99.99,,,0.69,weatherlink.com 1.10,2014-01-03 02:49:00,
2014-01-02 22:04:00,53.8,47.0,29.77,ESE,115,1.0,-999.0,79,-99.99,,,0.69,weatherlink.com 1.10,2014-01-03 03:04:00,
2014-01-02 22:18:00,52.3,45.0,29.79,ESE,120,3.0,-999.0,77,-99.99,,,0.69,weatherlink.com 1.10,2014-01-03 03:18:00,
2014-01-02 22:34:00,51.0,43.0,29.80,ENE,76,3.0,-999.0,73,-99.99,,,0.69,weatherlink.com 1.10,2014-01-03 03:34:00,
2014-01-02 22:49:00,49.5,40.0,29.81,SE,127,0.0,-999.0,70,-99.99,,,0.69,weatherlink.com 1.10,2014-01-03 03:49:00,
2014-01-02 23:03:00,48.6,39.0,29.82,East,89,1.0,-999.0,69,-99.99,,,0.00,weatherlink.com 1.10,2014-01-03 04:03:00,
2014-01-02 23:19:00,47.9,38.0,29.83,SW,234,1.0,-999.0,68,-99.99,,,0.00,weatherlink.com 1.10,2014-01-03 04:19:00,
2014-01-02 23:34:00,46.8,36.0,29.83,SE,145,2.0,-999.0,66,-99.99,,,0.00,weatherlink.com 1.10,2014-01-03 04:34:00,
2014-01-02 23:49:00,46.2,35.0,29.84,SE,138,2.0,-999.0,66,-99.99,,,0.00,weatherlink.com 1.10,2014-01-03 04:49:00,